Mitchell, SD

1:28 AM CST on November 17, 2019 (GMT -0600)
Mitchell Municipal

Weather History for KMHE - July, 2019

Change the Weather History Date:

Saturday, July 20, 2019

  Actual Average Record
Temperature  
Mean Temperature 72 °F 75 °F  
Max Temperature 82 °F 87 °F 112 °F (1934)
Min Temperature 61 °F 63 °F 46 °F (1898)
Degree Days  
Heating Degree Days 0 0  
Month to date heating degree days 0 0  
Since 1 June heating degree days 16 35  
Since 1 July heating degree days 0 0  
Cooling Degree Days 7 10  
Month to date cooling degree days 273 198  
Year to date cooling degree days 484 408  
Since 1 June cooling degree days 465 368  
Growing Degree Days 20 (Base 50)    
Moisture  
Dew Point 63 °F    
Average Humidity 69    
Maximum Humidity 84    
Minimum Humidity 54    
Precipitation  
Precipitation 0.94 in 0.08 in 0.94 in (2019)
Month to date precipitation 4.28 2.07  
Year to date precipitation 18.74 12.93  
Snow  
Snow 0.00 in - 0.00 in ()
Month to date snowfall 0.0  
Since 1 June snowfall 0.0  
Since 1 July snowfall 0.0  
Snow Depth 0.00 in    
Sea Level Pressure  
Sea Level Pressure 29.84 in    
Wind  
Wind Speed 13 mph (NNE)    
Max Wind Speed 52 mph    
Max Gust Speed 70 mph    
Visibility 8 miles    
Events Fog , Rain , Thunderstorm    
T = Trace of Precipitation, MM = Missing Value Source: NWS Daily Summary

Daily Weather History Graph

Daily Weather History Graph

Search for Another Location

Airport or City:

Astronomy

Jul. 20, 2019 Rise Set
Actual Time 6:08 AM CDT 9:08 PM CDT
Civil Twilight 5:34 AM CDT 9:42 PM CDT
Nautical Twilight 4:50 AM CDT 10:25 PM CDT
Astronomical Twilight 3:58 AM CDT 11:17 PM CDT
Moon 11:29 PM CDT (7/20) 9:38 AM CDT (7/20)
Length of Visible Light 16h 07m
Length of Day
14h 59m
Waning Gibbous, 87% of the Moon is Illuminated
Jul 20
Waning Gibbous
Jul 24
Last Quarter
Jul 31
New
Aug 7
First Quarter
Aug 15
Full

Hourly Weather History & Observations

Time (CDT) Temp. Dew Point Humidity Pressure Visibility Wind Dir Wind Speed Gust Speed Precip Events Conditions
12:36 AM 79.0 °F 71.1 °F 77% 29.75 in 10.0 mi ENE 12.7 mph - N/A   Overcast
12:53 AM 78.1 °F 70.0 °F 76% 29.71 in 10.0 mi ENE 10.4 mph - N/A   Mostly Cloudy
1:53 AM 77.0 °F 70.0 °F 79% 29.70 in 10.0 mi ENE 9.2 mph - N/A   Overcast
2:53 AM 78.1 °F 70.0 °F 76% 29.70 in 10.0 mi NE 8.1 mph - N/A   Overcast
3:53 AM 77.0 °F 70.0 °F 79% 29.70 in 10.0 mi NNE 11.5 mph - N/A   Overcast
4:10 AM 77.0 °F 70.0 °F 79% 29.73 in 10.0 mi NE 11.5 mph - N/A   Overcast
4:53 AM 77.0 °F 70.0 °F 79% 29.70 in 10.0 mi ENE 10.4 mph - N/A   Overcast
5:53 AM 75.9 °F 68.0 °F 76% 29.62 in 10.0 mi East 16.1 mph 24.2 mph N/A   Overcast
6:46 AM 77.0 °F 66.0 °F 69% 29.87 in 8.0 mi NW 41.4 mph 58.7 mph N/A Thunderstorm Overcast
6:53 AM 66.9 °F 61.0 °F 81% 29.83 in 0.8 mi North 42.6 mph 64.4 mph 0.10 in Rain , Thunderstorm Rain
6:55 AM 64.9 °F 61.0 °F 87% 29.88 in 0.5 mi North 46.0 mph 64.4 mph 0.05 in Fog , Rain , Thunderstorm Heavy Thunderstorms and Rain
7:20 AM 63.0 °F 61.0 °F 93% 29.85 in 2.5 mi NNE 41.4 mph 57.5 mph 0.59 in Rain , Thunderstorm Heavy Thunderstorms and Rain
7:23 AM 63.0 °F 60.1 °F 90% 29.85 in 4.0 mi NNE 39.1 mph 57.5 mph 0.64 in Rain , Thunderstorm Heavy Thunderstorms and Rain
7:30 AM 62.1 °F 59.0 °F 90% 29.87 in 8.0 mi NNE 36.8 mph 58.7 mph 0.68 in Rain , Thunderstorm Heavy Rain
7:48 AM 62.6 °F 60.8 °F 94% 29.87 in 8.0 mi NE 31.1 mph 49.5 mph 0.70 in Rain , Thunderstorm Light Thunderstorms and Rain
7:53 AM 61.0 °F 59.0 °F 93% 29.81 in 3.0 mi ENE 32.2 mph 50.6 mph 0.76 in Rain , Thunderstorm Heavy Thunderstorms and Rain
8:00 AM 61.0 °F 57.9 °F 90% 29.71 in 2.0 mi ENE 44.9 mph 70.2 mph 0.07 in Rain , Thunderstorm Heavy Thunderstorms and Rain
8:10 AM 62.1 °F 57.0 °F 84% 29.79 in 6.0 mi ENE 36.8 mph 64.4 mph 0.08 in Rain , Thunderstorm Light Rain
8:36 AM 64.0 °F 55.9 °F 75% 29.82 in 10.0 mi ENE 27.6 mph 43.7 mph 0.08 in   Clear
8:53 AM 64.0 °F 55.0 °F 73% 29.81 in 10.0 mi ENE 21.9 mph 34.5 mph 0.08 in   Clear
9:53 AM 66.0 °F 55.0 °F 68% 29.79 in 10.0 mi East 23.0 mph 34.5 mph N/A   Mostly Cloudy
10:53 AM 72.0 °F 55.9 °F 57% 29.84 in 10.0 mi East 19.6 mph 31.1 mph N/A   Scattered Clouds
11:53 AM 75.0 °F 57.9 °F 55% 29.90 in 10.0 mi NE 10.4 mph 17.3 mph N/A   Clear
12:53 PM 73.9 °F 59.0 °F 59% 29.92 in 10.0 mi NNE 8.1 mph - N/A   Clear
1:53 PM 77.0 °F 60.1 °F 56% 29.95 in 10.0 mi North 9.2 mph - N/A   Mostly Cloudy
2:53 PM 78.1 °F 62.1 °F 58% 29.94 in 10.0 mi NNW 8.1 mph - N/A   Scattered Clouds
3:53 PM 79.0 °F 63.0 °F 58% 29.93 in 10.0 mi North 10.4 mph - N/A   Clear
4:53 PM 79.0 °F 64.0 °F 60% 29.93 in 10.0 mi NNW 11.5 mph - N/A   Mostly Cloudy
5:53 PM 79.0 °F 64.0 °F 60% 29.93 in 10.0 mi North 11.5 mph - N/A   Scattered Clouds
6:53 PM 79.0 °F 64.0 °F 60% 29.94 in 10.0 mi NNE 9.2 mph - N/A   Scattered Clouds
7:53 PM 79.0 °F 64.9 °F 62% 29.95 in 10.0 mi North 8.1 mph - N/A   Partly Cloudy
8:53 PM 75.0 °F 64.9 °F 71% 29.96 in 10.0 mi North 5.8 mph - N/A   Clear
9:53 PM 72.0 °F 64.9 °F 78% 29.99 in 10.0 mi NNE 5.8 mph - N/A   Clear
10:53 PM 71.1 °F 64.9 °F 81% 29.99 in 10.0 mi NNE 6.9 mph - N/A   Clear
11:53 PM 70.0 °F 64.9 °F 84% 30.01 in 10.0 mi NE 8.1 mph - N/A   Clear